• In Portugal
  • List of Countries
  • For 7 days
  • Water Temperature
  • Satellite Maps
  • Weather Map
  • Weather Widgets
  • user-avatar
    Login

    Hourly Weather São Paulo

    Today, 11 December, Monday

    Time Temperature Precipitation Wind Pressure Humidity
    00:00 +22°C° 0 mm 1 mps 692 mmHg 78%
    01:00 +22°C° 0 mm 1 mps 692 mmHg 77%
    02:00 +21°C° 0 mm 1 mps 692 mmHg 76%
    03:00 +21°C° 0 mm 1 mps 692 mmHg 75%
    04:00 +21°C° 0 mm 1 mps 692 mmHg 73%
    05:00 +21°C° 0 mm 1 mps 692 mmHg 71%
    06:00 +21°C° 0 mm 1 mps 692 mmHg 69%
    07:00 +24°C° 0 mm 1 mps 693 mmHg 59%
    08:00 +27°C° 0 mm 1 mps 694 mmHg 48%
    09:00 +29°C° 0 mm 1 mps 694 mmHg 37%
    10:00 +30°C° 0 mm 2 mps 694 mmHg 38%
    11:00 +30°C° 0 mm 3 mps 694 mmHg 38%
    12:00 +30°C° 0 mm 3 mps 695 mmHg 39%
    13:00 +29°C° 0.3 mm 4 mps 694 mmHg 48%
    14:00 +27°C° 0.3 mm 5 mps 694 mmHg 57%
    15:00 +26°C° 0.3 mm 5 mps 694 mmHg 66%
    16:00 +23°C° 0.2 mm 5 mps 695 mmHg 71%
    17:00 +22°C° 0.2 mm 5 mps 695 mmHg 77%
    18:00 +20°C° 0.2 mm 5 mps 695 mmHg 82%
    19:00 +20°C° 0.1 mm 5 mps 696 mmHg 82%
    20:00 +19°C° 0.1 mm 5 mps 696 mmHg 82%
    21:00 +19°C° 0.1 mm 4 mps 697 mmHg 82%
    22:00 +19°C° 0 mm 4 mps 697 mmHg 83%
    23:00 +18°C° 0 mm 4 mps 697 mmHg 84%

    Tomorrow, 12 December, Tuesday

    Time Temperature Precipitation Wind Pressure Humidity
    00:00 +18°C° 0 mm 4 mps 697 mmHg 84%
    01:00 +18°C° 0.1 mm 4 mps 697 mmHg 84%
    02:00 +18°C° 0.1 mm 3 mps 697 mmHg 84%
    03:00 +17°C° 0.1 mm 3 mps 697 mmHg 84%
    04:00 +17°C° 0 mm 3 mps 697 mmHg 84%
    05:00 +17°C° 0 mm 3 mps 698 mmHg 84%
    06:00 +17°C° 0 mm 3 mps 698 mmHg 83%
    07:00 +18°C° 0 mm 3 mps 699 mmHg 78%
    08:00 +19°C° 0 mm 3 mps 699 mmHg 73%
    09:00 +20°C° 0 mm 4 mps 700 mmHg 68%
    10:00 +21°C° 0 mm 4 mps 700 mmHg 66%
    11:00 +22°C° 0 mm 4 mps 700 mmHg 64%
    12:00 +22°C° 0 mm 4 mps 700 mmHg 62%
    13:00 +22°C° 0 mm 4 mps 700 mmHg 61%
    14:00 +23°C° 0 mm 4 mps 700 mmHg 61%
    15:00 +23°C° 0 mm 4 mps 699 mmHg 60%
    16:00 +22°C° 0 mm 4 mps 699 mmHg 64%
    17:00 +21°C° 0 mm 4 mps 699 mmHg 68%
    18:00 +20°C° 0 mm 4 mps 699 mmHg 71%
    19:00 +19°C° 0 mm 4 mps 699 mmHg 75%
    20:00 +18°C° 0 mm 4 mps 700 mmHg 79%
    21:00 +17°C° 0 mm 3 mps 700 mmHg 83%
    22:00 +16°C° 0 mm 3 mps 700 mmHg 83%
    23:00 +16°C° 0 mm 3 mps 700 mmHg 84%

    Day after tomorrow, 13 December, Wednesday

    Time Temperature Precipitation Wind Pressure Humidity
    00:00 +16°C° 0 mm 3 mps 700 mmHg 85%
    01:00 +14°C° 0 mm 3 mps 700 mmHg 86%
    02:00 +15°C° 0 mm 2 mps 699 mmHg 86%
    03:00 +15°C° 0 mm 2 mps 699 mmHg 86%
    04:00 +15°C° 0 mm 2 mps 699 mmHg 85%
    05:00 +15°C° 0 mm 2 mps 700 mmHg 84%
    06:00 +15°C° 0 mm 2 mps 700 mmHg 83%
    07:00 +18°C° 0 mm 2 mps 701 mmHg 75%
    08:00 +20°C° 0 mm 2 mps 701 mmHg 66%
    09:00 +22°C° 0 mm 3 mps 702 mmHg 57%
    10:00 +24°C° 0 mm 3 mps 702 mmHg 54%
    11:00 +26°C° 0 mm 3 mps 702 mmHg 51%
    12:00 +27°C° 0 mm 3 mps 702 mmHg 47%
    13:00 +27°C° 0 mm 3 mps 701 mmHg 48%
    14:00 +28°C° 0 mm 3 mps 701 mmHg 48%
    15:00 +28°C° 0 mm 3 mps 700 mmHg 49%
    16:00 +26°C° 0 mm 3 mps 700 mmHg 55%
    17:00 +25°C° 0 mm 4 mps 700 mmHg 61%
    18:00 +22°C° 0 mm 4 mps 700 mmHg 67%
    19:00 +21°C° 0 mm 3 mps 700 mmHg 72%
    20:00 +19°C° 0 mm 3 mps 700 mmHg 76%
    21:00 +18°C° 0 mm 2 mps 701 mmHg 81%
    22:00 +18°C° 0 mm 2 mps 700 mmHg 82%
    23:00 +17°C° 0 mm 2 mps 700 mmHg 83%

    14 December, Thursday

    Time Temperature Precipitation Wind Pressure Humidity
    00:00 +17°C° 0 mm 2 mps 700 mmHg 84%
    01:00 +17°C° 0 mm 2 mps 700 mmHg 85%
    02:00 +18°C° 0 mm 1 mps 700 mmHg 86%
    03:00 +18°C° 0 mm 1 mps 699 mmHg 87%
    04:00 +18°C° 0 mm 1 mps 699 mmHg 86%
    05:00 +18°C° 0 mm 1 mps 700 mmHg 85%
    06:00 +18°C° 0 mm 1 mps 700 mmHg 84%
    07:00 +21°C° 0 mm 1 mps 701 mmHg 74%
    08:00 +24°C° 0 mm 1 mps 701 mmHg 64%
    09:00 +27°C° 0 mm 1 mps 702 mmHg 54%
    10:00 +28°C° 0 mm 1 mps 702 mmHg 50%
    11:00 +30°C° 0 mm 1 mps 701 mmHg 45%
    12:00 +31°C° 0 mm 2 mps 701 mmHg 41%
    13:00 +31°C° 0 mm 2 mps 700 mmHg 41%
    14:00 +31°C° 0 mm 2 mps 700 mmHg 42%
    15:00 +31°C° 0 mm 3 mps 699 mmHg 42%
    16:00 +29°C° 0 mm 3 mps 699 mmHg 49%
    17:00 +28°C° 0 mm 3 mps 699 mmHg 56%
    18:00 +26°C° 0 mm 3 mps 699 mmHg 64%
    19:00 +25°C° 0 mm 3 mps 699 mmHg 69%
    20:00 +24°C° 0 mm 2 mps 699 mmHg 74%
    21:00 +21°C° 0 mm 2 mps 699 mmHg 79%
    22:00 +21°C° 0 mm 2 mps 699 mmHg 80%
    23:00 +21°C° 0 mm 2 mps 698 mmHg 80%

    15 December, Friday

    Time Temperature Precipitation Wind Pressure Humidity
    00:00 +20°C° 0 mm 2 mps 698 mmHg 81%
    01:00 +21°C° 0 mm 1 mps 698 mmHg 80%
    02:00 +21°C° 0 mm 1 mps 698 mmHg 80%
    03:00 +21°C° 0 mm 1 mps 697 mmHg 79%
    04:00 +21°C° 0 mm 1 mps 698 mmHg 78%
    05:00 +21°C° 0 mm 1 mps 698 mmHg 77%
    06:00 +21°C° 0 mm 1 mps 698 mmHg 76%
    07:00 +23°C° 0 mm 1 mps 699 mmHg 67%
    08:00 +26°C° 0 mm 2 mps 700 mmHg 57%
    09:00 +28°C° 0 mm 2 mps 700 mmHg 48%
    10:00 +30°C° 0 mm 2 mps 700 mmHg 43%
    11:00 +31°C° 0 mm 2 mps 700 mmHg 37%
    12:00 +32°C° 0 mm 2 mps 700 mmHg 32%
    13:00 +32°C° 0 mm 2 mps 699 mmHg 33%
    14:00 +33°C° 0 mm 3 mps 699 mmHg 34%
    15:00 +33°C° 0 mm 3 mps 698 mmHg 35%
    16:00 +31°C° 0 mm 3 mps 698 mmHg 40%
    17:00 +29°C° 0 mm 3 mps 698 mmHg 44%
    18:00 +28°C° 0 mm 2 mps 698 mmHg 49%
    19:00 +26°C° 0 mm 2 mps 698 mmHg 52%
    20:00 +25°C° 0 mm 2 mps 698 mmHg 55%
    21:00 +23°C° 0 mm 2 mps 698 mmHg 58%
    22:00 +21°C° 0 mm 2 mps 698 mmHg 59%
    23:00 +21°C° 0 mm 2 mps 697 mmHg 60%

    16 December, Saturday

    Time Temperature Precipitation Wind Pressure Humidity
    00:00 +20°C° 0 mm 2 mps 697 mmHg 60%
    01:00 +21°C° 0 mm 1 mps 697 mmHg 61%
    02:00 +20°C° 0 mm 1 mps 697 mmHg 62%
    03:00 +20°C° 0 mm 1 mps 697 mmHg 63%
    04:00 +20°C° 0 mm 1 mps 697 mmHg 64%
    05:00 +20°C° 0 mm 1 mps 697 mmHg 65%
    06:00 +20°C° 0 mm 1 mps 698 mmHg 66%
    07:00 +22°C° 0 mm 1 mps 699 mmHg 59%
    08:00 +25°C° 0 mm 1 mps 699 mmHg 51%
    09:00 +28°C° 0 mm 1 mps 700 mmHg 44%
    10:00 +29°C° 0 mm 1 mps 700 mmHg 40%
    11:00 +31°C° 0 mm 2 mps 700 mmHg 36%
    12:00 +32°C° 0 mm 2 mps 700 mmHg 32%
    13:00 +32°C° 0 mm 2 mps 699 mmHg 33%
    14:00 +34°C° 0 mm 2 mps 699 mmHg 33%
    15:00 +34°C° 0 mm 2 mps 698 mmHg 34%
    16:00 +31°C° 0 mm 3 mps 698 mmHg 42%
    17:00 +29°C° 0 mm 3 mps 698 mmHg 49%
    18:00 +27°C° 0 mm 3 mps 697 mmHg 57%
    19:00 +25°C° 0 mm 3 mps 698 mmHg 64%
    20:00 +24°C° 0 mm 2 mps 698 mmHg 70%
    21:00 +21°C° 0 mm 2 mps 698 mmHg 77%
    22:00 +21°C° 0 mm 2 mps 698 mmHg 77%
    23:00 +21°C° 0 mm 2 mps 697 mmHg 78%
    Show more